Location: Columbus
(35.2256°N, 82.1549°W)
Time: 16:21:49
(UTC-05:00)

ISS - Pass Details

Date: 03 December 2021
Orbit: 413 x 422 km, 51.6° (Epoch: 23 January)

Event Time Altitude Azimuth Distance (km) Brightness Sun altitude
Rises 18:52:41 0° 324° (NW) 2,376 0.4 -19.3°
Reaches altitude 10° 18:55:16 10° 344° (NNW) 1,507 -0.9 -19.8°
Enters shadow 18:55:42 12° 350° (N) 1,390 -1.2 -19.9°
